Home > Weather > Ilmenau > Past weeks

Flag for Germany Past Weather in Ilmenau, Thuringia, Germany — Yesterday and Last 2 Weeks

Now
64 °F

Clear.


Feels Like: 64 °F
Forecast: 50 / 67 °F
Wind: 8 mph from Northwest

Location: Erfurt-Bindersleben

Current Time: Aug 29, 2016 at 9:53:38 PM

Latest Report: Aug 29, 2016 at 9:20 PM


Visibility: 10 mi

Pressure: 30.15 "Hg

Humidity: 73%

Dew Point: 55 °F

Location of IlmenauLocation

Past Weather in Ilmenau — Graph

°F

Ilmenau Temperature Yesterday

Maximum temperature yesterday: 91 °F (at 11:50 AM)
Minimum temperature yesterday: 64 °F (at 8:20 PM)
Average temperature yesterday: 78 °F

High & Low Weather Summary for the Past Weeks

 TemperatureHumidityPressure
High93 °F (Aug 26, 4:20 PM)100% (Aug 18, 6:20 AM)30.36 "Hg (Aug 18, 6:20 AM)
Low43 °F (Aug 18, 6:20 AM)17% (Aug 25, 2:20 PM)29.80 "Hg (Aug 18, 4:50 PM)
Average68 °F62%30.09 "Hg
* Reported Aug 14 8:20 PM — Aug 29 8:50 PM, Ilmenau, Weather by CustomWeather, © 2016

Note: Actual official high and low records may vary slightly from our data, if they occured in-between our weather recording intervals... More about our weather records

Advertising

Ilmenau Weather History for the Previous 24 Hours

Scroll right to see more
 ConditionsComfort  
Time TempWeatherWind HumidityBarometerVisibility
8:50 PM
Mon, Aug 29
64 °FSunny.8 mph73%30.15 "Hg10 mi
8:20 PM66 °FSunny.6 mph68%30.15 "Hg10 mi
7:50 PM66 °FBroken clouds.6 mph73%30.12 "HgN/A
7:20 PM68 °FBroken clouds.10 mph64%30.12 "HgN/A
6:50 PM68 °FBroken clouds.9 mph64%30.12 "HgN/A
6:20 PM68 °FBroken clouds.9 mph60%30.12 "HgN/A
5:50 PM68 °FBroken clouds.12 mph60%30.09 "HgN/A
5:20 PM68 °FBroken clouds.12 mph60%30.09 "HgN/A
4:50 PM70 °FBroken clouds.14 mph57%30.09 "HgN/A
4:20 PM70 °FPartly sunny.17 mph60%30.09 "HgN/A
3:50 PM68 °FPartly sunny.18 mph69%30.09 "HgN/A
3:20 PM68 °FBroken clouds.16 mph69%30.09 "HgN/A
2:50 PM72 °FScattered clouds.14 mph57%30.07 "HgN/A
2:20 PM73 °FScattered clouds.13 mph57%30.07 "HgN/A
1:50 PM72 °FScattered clouds.16 mph57%30.07 "HgN/A
1:20 PM72 °FScattered clouds.14 mph61%30.07 "HgN/A
12:50 PM68 °FScattered showers. Scattered clouds.15 mph64%30.07 "HgN/A
12:20 PM68 °FScattered showers. Partly sunny.13 mph69%30.07 "HgN/A
11:50 AM68 °FBroken clouds.14 mph64%30.07 "HgN/A
11:20 AM68 °FPartly sunny.13 mph64%30.07 "HgN/A
10:50 AM72 °FScattered clouds.14 mph61%30.07 "HgN/A
10:20 AM70 °FScattered clouds.13 mph64%30.07 "HgN/A
9:50 AM70 °FScattered clouds.13 mph64%30.07 "HgN/A
9:20 AM68 °FPassing clouds.10 mph73%30.04 "HgN/A
8:50 AM66 °FPassing clouds.8 mph83%30.04 "HgN/A
8:20 AM66 °FSunny.8 mph78%30.04 "Hg10 mi
7:50 AM64 °FSunny.7 mph88%30.04 "Hg10 mi
7:20 AM63 °FPassing clouds.6 mph94%30.04 "HgN/A
6:50 AM63 °FPassing clouds.6 mph88%30.04 "HgN/A
6:20 AM63 °FPassing clouds.3 mph94%30.01 "HgN/A
5:50 AM64 °FClear.5 mph83%30.01 "Hg10 mi
5:20 AM66 °FPassing clouds.3 mph83%30.01 "HgN/A
4:50 AM64 °FClear.5 mph94%30.01 "Hg10 mi
4:20 AM64 °FClear.3 mph94%30.01 "Hg10 mi
3:50 AM66 °FPassing clouds.3 mph88%30.01 "HgN/A
3:20 AM66 °FPassing clouds.3 mph88%30.01 "HgN/A
2:50 AM66 °FPassing clouds.5 mph88%30.01 "HgN/A
2:20 AM64 °FPassing clouds.7 mph94%30.01 "HgN/A
1:50 AM66 °FPassing clouds.7 mph88%30.01 "HgN/A
1:20 AM66 °FPassing clouds.8 mph88%30.01 "HgN/A
12:50 AM64 °FPassing clouds.7 mph94%30.01 "HgN/A
12:20 AM64 °FClear.6 mph94%30.01 "Hg10 mi
11:50 PM
Sun, Aug 28
64 °FClear.8 mph94%29.98 "Hg10 mi
11:20 PM66 °FClear.9 mph88%29.98 "Hg10 mi
10:50 PM66 °FClear.9 mph88%29.98 "Hg10 mi
10:20 PM64 °FClear.10 mph94%29.98 "Hg10 mi
9:50 PM64 °FClear.10 mph94%29.98 "Hg10 mi
9:20 PM66 °FPassing clouds.9 mph88%29.98 "HgN/A
Weather by CustomWeather, © 2016

See weather overviewHow to use our weather pages